| time (UTC) | temp C | wind direction | speed KPH | gust KPH | rain 1hr cm | rain 24hr cm | rain mn cm | humidity % | barometer mb |
| 20260903150108 | 12 | 115 | 12.9 | 17.7 | 0.03 | 1.32 | 0.18 | 95 | |
| 20260903145036 | 12 | 128 | 11.3 | 14.5 | 0.05 | 1.32 | 0.18 | 97 | |
| 20260903144027 | 12 | 102 | 8.0 | 12.9 | 0.10 | 1.32 | 0.18 | 98 | |
| 20260903143034 | 12 | 102 | 8.0 | 14.5 | 0.13 | 1.32 | 0.18 | 98 | |
| 20260903142023 | 12 | 113 | 8.0 | 11.3 | 0.18 | 1.32 | 0.18 | 98 | |
| 20260903141032 | 12 | 130 | 9.7 | 14.5 | 0.18 | 1.32 | 0.18 | 97 | |
| 20260903140020 | 12 | 105 | 11.3 | 17.7 | 0.15 | 1.30 | 0.15 | 97 | |
| 20260903135028 | 12 | 123 | 11.3 | 14.5 | 0.13 | 1.27 | 0.13 | 97 | |
| 20260903134040 | 12 | 132 | 14.5 | 17.7 | 0.08 | 1.22 | 0.08 | 96 | |
| 20260903133025 | 12 | 135 | 12.9 | 17.7 | 0.05 | 1.19 | 0.05 | 96 | |
| 20260903132032 | 12 | 101 | 9.7 | 12.9 | 0.00 | 1.14 | 0.00 | 95 | |
| 20260903131024 | 12 | 121 | 11.3 | 16.1 | 0.00 | 1.14 | 0.00 | 93 | |
| 20260903130032 | 13 | 143 | 12.9 | 19.3 | 0.00 | 1.14 | 0.00 | 90 | |
| 20260903125019 | 13 | 114 | 12.9 | 19.3 | 0.00 | 1.14 | 0.00 | 91 | |
| 20260903124027 | 13 | 133 | 11.3 | 17.7 | 0.00 | 1.14 | 0.00 | 91 | |
| 20260903123035 | 13 | 127 | 11.3 | 16.1 | 0.00 | 1.14 | 0.00 | 91 | |
| 20260903122024 | 12 | 118 | 11.3 | 14.5 | 0.00 | 1.14 | 0.00 | 92 | |
| 20260903121110 | 12 | 121 | 12.9 | 17.7 | 0.00 | 1.14 | 0.00 | 92 | |
| 20260903120021 | 12 | 122 | 9.7 | 17.7 | 0.00 | 1.14 | 0.00 | 93 | |
| 20260903115029 | 12 | 97 | 9.7 | 12.9 | 0.00 | 1.14 | 0.00 | 93 | |
| 20260903114040 | 12 | 116 | 8.0 | 11.3 | 0.00 | 1.14 | 0.00 | 93 | |
| 20260903113046 | 12 | 111 | 8.0 | 14.5 | 0.00 | 1.14 | 0.00 | 93 | |
| 20260903112034 | 12 | 113 | 11.3 | 16.1 | 0.00 | 1.14 | 0.00 | 93 | |
| 20260903111024 | 12 | 109 | 11.3 | 14.5 | 0.00 | 1.14 | 0.00 | 93 | |
| 20260903110032 | 12 | 113 | 9.7 | 19.3 | 0.00 | 1.14 | 0.00 | 93 | |
| 20260903105021 | 12 | 102 | 12.9 | 16.1 | 0.00 | 1.14 | 0.00 | 93 | |
| 20260903104031 | 12 | 126 | 9.7 | 16.1 | 0.00 | 1.14 | 0.00 | 94 | |
| 20260903103036 | 12 | 117 | 9.7 | 14.5 | 0.00 | 1.14 | 0.00 | 94 | |
| 20260903102025 | 12 | 115 | 8.0 | 14.5 | 0.00 | 1.14 | 0.00 | 94 | |
| 20260903101033 | 12 | 119 | 11.3 | 16.1 | 0.00 | 1.14 | 0.00 | 94 | |
| 20260903100025 | 12 | 118 | 11.3 | 16.1 | 0.00 | 1.14 | 0.00 | 94 | |
| 20260903095032 | 12 | 110 | 11.3 | 14.5 | 0.00 | 1.14 | 0.00 | 94 | |
| 20260903094020 | 13 | 117 | 9.7 | 17.7 | 0.00 | 1.14 | 0.00 | 93 | |
| 20260903093028 | 13 | 126 | 11.3 | 16.1 | 0.00 | 1.14 | 0.00 | 93 | |
| 20260903092036 | 13 | 115 | 11.3 | 17.7 | 0.00 | 1.14 | 0.00 | 93 | |
| 20260903091024 | 13 | 138 | 14.5 | 22.5 | 0.00 | 1.14 | 0.00 | 93 | |
| 20260903090050 | 13 | 122 | 16.1 | 20.9 | 0.00 | 1.14 | 0.00 | 93 | |
| 20260903085024 | 13 | 129 | 12.9 | 17.7 | 0.00 | 1.14 | 0.00 | 93 | |
| 20260903084109 | 13 | 132 | 11.3 | 16.1 | 0.00 | 1.14 | 0.00 | 93 | |
| 20260903083039 | 13 | 130 | 14.5 | 19.3 | 0.00 | 1.14 | 0.00 | 93 | |
| 20260903082047 | 13 | 127 | 12.9 | 16.1 | 0.00 | 1.14 | 0.00 | 93 | |
| 20260903081035 | 13 | 127 | 12.9 | 17.7 | 0.00 | 1.14 | 0.00 | 93 | |
| 20260903080024 | 13 | 141 | 16.1 | 24.1 | 0.00 | 1.14 | 0.00 | 94 | |
| 20260903075032 | 13 | 120 | 14.5 | 19.3 | 0.00 | 1.14 | 0.00 | 94 | |
| 20260903074044 | 13 | 120 | 11.3 | 17.7 | 0.00 | 1.14 | 0.00 | 94 | |
| 20260903073029 | 13 | 146 | 12.9 | 17.7 | 0.00 | 1.14 | 0.00 | 95 | |
| 20260903072036 | 13 | 145 | 14.5 | 24.1 | 0.00 | 1.14 | 0.00 | 95 | |
| 20260903071045 | 13 | 125 | 12.9 | 17.7 | 0.00 | 1.14 | 0.00 | 95 | |
| 20260903070034 | 13 | 106 | 11.3 | 16.1 | 0.03 | 1.14 | 0.00 | 96 | |
| 20260903065045 | 13 | 133 | 11.3 | 14.5 | 0.03 | 1.14 | 1.14 | 96 | |
| 20260903064031 | 13 | 145 | 8.0 | 14.5 | 0.03 | 1.14 | 1.14 | 96 | |
| 20260903063021 | 13 | 140 | 11.3 | 14.5 | 0.03 | 1.14 | 1.14 | 96 | |
| 20260903062028 | 13 | 125 | 11.3 | 16.1 | 0.05 | 1.14 | 1.14 | 96 | |
| 20260903061036 | 13 | 124 | 9.7 | 12.9 | 0.05 | 1.14 | 1.14 | 96 | |
| 20260903060025 | 13 | 119 | 8.0 | 14.5 | 0.03 | 1.12 | 1.12 | 97 | |
| 20260903055033 | 13 | 112 | 8.0 | 11.3 | 0.03 | 1.12 | 1.12 | 97 | |
| 20260903054022 | 13 | 135 | 8.0 | 11.3 | 0.03 | 1.12 | 1.12 | 96 | |
| 20260903053030 | 13 | 140 | 6.4 | 11.3 | 0.03 | 1.12 | 1.12 | 96 | |
| 20260903052019 | 13 | 159 | 8.0 | 11.3 | 0.00 | 1.09 | 1.09 | 95 | |
| 20260903051048 | 13 | 190 | 9.7 | 16.1 | 0.00 | 1.09 | 1.09 | 95 | |
| 20260903050036 | 13 | 139 | 9.7 | 12.9 | 0.00 | 1.09 | 1.09 | 96 | |
| 20260903045025 | 13 | 112 | 8.0 | 11.3 | 0.00 | 1.09 | 1.09 | 97 | |
| 20260903044032 | 13 | 114 | 8.0 | 11.3 | 0.00 | 1.09 | 1.09 | 97 | |
| 20260903043022 | 13 | 100 | 8.0 | 9.7 | 0.00 | 1.09 | 1.09 | 96 | |
| 20260903042030 | 13 | 119 | 8.0 | 11.3 | 0.00 | 1.09 | 1.09 | 96 | |
| 20260903041019 | 13 | 108 | 8.0 | 14.5 | 0.00 | 1.09 | 1.09 | 95 | |
| 20260903040027 | 13 | 130 | 8.0 | 11.3 | 0.00 | 1.09 | 1.09 | 94 | |
| 20260903035034 | 13 | 127 | 14.5 | 20.9 | 0.00 | 1.09 | 1.09 | 93 | |
| 20260903034044 | 13 | 130 | 9.7 | 14.5 | 0.00 | 1.09 | 1.09 | 93 | |
| 20260903033032 | 13 | 130 | 8.0 | 11.3 | 0.00 | 1.09 | 1.09 | 93 | |
| 20260903032021 | 14 | 133 | 8.0 | 11.3 | 0.00 | 1.09 | 1.09 | 93 | |
| 20260903031029 | 14 | 112 | 4.8 | 8.0 | 0.00 | 1.09 | 1.09 | 93 | |
| 20260903030056 | -17 | 113 | 4.8 | 4.8 | 0.00 | 1.09 | 1.09 | ||
| 20260903025103 | -17 | 108 | 4.8 | 6.4 | 0.00 | 1.09 | 1.09 | ||
| 20260903024150 | 15 | 95 | 8.0 | 9.7 | 0.00 | 1.09 | 1.09 | 92 | |
| 20260903023233 | 15 | 113 | 8.0 | 9.7 | 0.00 | 1.09 | 1.09 | 93 | |
| 20260903022032 | 15 | 126 | 6.4 | 9.7 | 0.00 | 1.09 | 1.09 | 93 | |
| 20260903021041 | 15 | 159 | 6.4 | 8.0 | 0.00 | 1.09 | 1.09 | 91 | |
| 20260903020029 | 15 | 155 | 6.4 | 8.0 | 0.00 | 1.09 | 1.09 | 92 | |
| 20260903015056 | 15 | 158 | 4.8 | 9.7 | 0.03 | 1.09 | 1.09 | 92 | |
| 20260903014026 | 15 | 149 | 6.4 | 8.0 | 0.05 | 1.09 | 1.09 | 92 | |
| 20260903013034 | 15 | 153 | 6.4 | 9.7 | 0.05 | 1.09 | 1.09 | 93 | |
| 20260903012024 | 15 | 165 | 8.0 | 12.9 | 0.05 | 1.09 | 1.09 | 94 | |
| 20260903011032 | 15 | 147 | 8.0 | 14.5 | 0.05 | 1.09 | 1.09 | 94 | |
| 20260903010020 | 15 | 170 | 8.0 | 11.3 | 0.05 | 1.09 | 1.09 | 93 | |
| 20260903005029 | 15 | 152 | 9.7 | 16.1 | 0.03 | 1.07 | 1.07 | 92 | |
| 20260903004036 | 15 | 183 | 9.7 | 14.5 | 0.00 | 1.04 | 1.04 | 93 | |
| 20260903003026 | 15 | 165 | 6.4 | 11.3 | 0.00 | 1.04 | 1.04 | 94 | |
| 20260903002034 | 16 | 163 | 6.4 | 9.7 | 0.00 | 1.04 | 1.04 | 94 | |
| 20260903001042 | 15 | 168 | 8.0 | 12.9 | 0.05 | 1.04 | 1.04 | 93 | |
| 20260903000052 | 15 | 177 | 8.0 | 9.7 | 0.30 | 1.04 | 1.04 | 93 | |
| 20260902235020 | 15 | 171 | 9.7 | 16.1 | 0.38 | 1.04 | 1.04 | 95 | |
| 20260902234029 | 15 | 166 | 6.4 | 8.0 | 0.43 | 1.04 | 1.04 | 96 | |
| 20260902233054 | 15 | 177 | 6.4 | 9.7 | 0.48 | 1.04 | 1.04 | 98 | |
| 20260902232046 | 15 | 168 | 11.3 | 17.7 | 0.48 | 1.04 | 1.04 | 98 | |
| 20260902231033 | 15 | 179 | 14.5 | 20.9 | 0.43 | 0.99 | 0.99 | 97 | |
| 20260902230024 | 15 | 177 | 9.7 | 14.5 | 0.18 | 0.74 | 0.74 | 97 | |
| 20260902225032 | 15 | 147 | 12.9 | 16.1 | 0.13 | 0.66 | 0.66 | 96 | |
| 20260902224019 | 15 | 149 | 16.1 | 24.1 | 0.08 | 0.61 | 0.61 | 96 | |
| 20260902223027 | 15 | 153 | 14.5 | 24.1 | 0.03 | 0.56 | 0.56 | 95 | |
| 20260902222035 | 15 | 145 | 12.9 | 17.7 | 0.05 | 0.56 | 0.56 | 95 | |
| 20260902221024 | 15 | 159 | 16.1 | 20.9 | 0.05 | 0.56 | 0.56 | 93 | |
| 20260902220032 | 15 | 139 | 17.7 | 25.7 | 0.05 | 0.56 | 0.56 | 93 | |
| 20260902215024 | 15 | 166 | 17.7 | 24.1 | 0.05 | 0.53 | 0.53 | 91 | |
| 20260902214050 | 15 | 143 | 16.1 | 27.4 | 0.05 | 0.53 | 0.53 | 90 | |
| 20260902213019 | 15 | 124 | 20.9 | 30.6 | 0.05 | 0.53 | 0.53 | 90 | |
| 20260902212026 | 15 | 148 | 20.9 | 30.6 | 0.03 | 0.51 | 0.51 | 89 | |
| 20260902211035 | 15 | 135 | 20.9 | 35.4 | 0.03 | 0.51 | 0.51 | 89 | |
| 20260902210024 | 15 | 156 | 20.9 | 29.0 | 0.03 | 0.51 | 0.51 | 89 | |
| 20260902205032 | 16 | 122 | 19.3 | 30.6 | 0.00 | 0.48 | 0.48 | 86 | |
| 20260902204041 | 16 | 151 | 19.3 | 27.4 | 0.00 | 0.48 | 0.48 | 87 | |
| 20260902203029 | 15 | 146 | 16.1 | 20.9 | 0.03 | 0.48 | 0.48 | 88 | |
| 20260902202036 | 15 | 128 | 16.1 | 24.1 | 0.03 | 0.48 | 0.48 | 88 | |
| 20260902201025 | 15 | 122 | 17.7 | 24.1 | 0.05 | 0.48 | 0.48 | 88 | |
| 20260902200033 | 15 | 140 | 16.1 | 20.9 | 0.05 | 0.48 | 0.48 | 92 | |
| 20260902195024 | 15 | 123 | 14.5 | 20.9 | 0.10 | 0.48 | 0.48 | 93 | |
| 20260902194030 | 15 | 130 | 14.5 | 20.9 | 0.13 | 0.48 | 0.48 | 93 | |
| 20260902193037 | 15 | 117 | 16.1 | 22.5 | 0.20 | 0.46 | 0.46 | 94 | |
| 20260902192045 | 14 | 121 | 16.1 | 20.9 | 0.28 | 0.46 | 0.46 | 94 | |
| 20260902191035 | 14 | 102 | 14.5 | 22.5 | 0.30 | 0.43 | 0.43 | 95 | |
| 20260902190045 | 14 | 95 | 12.9 | 20.9 | 0.36 | 0.43 | 0.43 | 95 | |
| 20260902185032 | 14 | 92 | 9.7 | 12.9 | 0.30 | 0.38 | 0.38 | 95 | |
| 20260902184021 | 14 | 110 | 9.7 | 12.9 | 0.28 | 0.36 | 0.36 | 94 | |
| 20260902183029 | 15 | 123 | 9.7 | 12.9 | 0.20 | 0.25 | 0.25 | 94 | |
| 20260902182037 | 15 | 123 | 8.0 | 14.5 | 0.13 | 0.18 | 0.18 | 92 | |
| 20260902181026 | 15 | 104 | 8.0 | 12.9 | 0.10 | 0.13 | 0.13 | 91 | |
| 20260902180034 | 15 | 123 | 8.0 | 12.9 | 0.08 | 0.08 | 0.08 | 90 | |
| 20260902175024 | 15 | 120 | 8.0 | 12.9 | 0.08 | 0.08 | 0.08 | 91 | |
| 20260902174031 | 15 | 118 | 9.7 | 12.9 | 0.08 | 0.08 | 0.08 | 91 | |
| 20260902173021 | 15 | 144 | 8.0 | 14.5 | 0.05 | 0.05 | 0.05 | 90 | |
| 20260902172028 | 15 | 157 | 11.3 | 16.1 | 0.05 | 0.05 | 0.05 | 89 | |
| 20260902171057 | 15 | 155 | 11.3 | 14.5 | 0.03 | 0.03 | 0.03 | 88 | |
| 20260902170026 | 15 | 165 | 9.7 | 20.9 | 0.00 | 0.00 | 0.00 | 85 | |
| 20260902165033 | 16 | 147 | 11.3 | 17.7 | 0.00 | 0.00 | 0.00 | 83 | |
| 20260902164023 | 16 | 164 | 9.7 | 14.5 | 0.00 | 0.00 | 0.00 | 80 | |
| 20260902163033 | 17 | 197 | 8.0 | 9.7 | 0.00 | 0.00 | 0.00 | 77 | |
| 20260902162020 | 17 | 172 | 6.4 | 9.7 | 0.00 | 0.00 | 0.00 | 74 | |
| 20260902161029 | 17 | 165 | 8.0 | 12.9 | 0.00 | 0.00 | 0.00 | 74 | |
| 20260902160036 | 17 | 142 | 6.4 | 11.3 | 0.00 | 0.00 | 0.00 | 73 | |
| 20260902155026 | 17 | 130 | 6.4 | 9.7 | 0.00 | 0.00 | 0.00 | 73 | |
| 20260902154034 | 16 | 153 | 6.4 | 9.7 | 0.00 | 0.00 | 0.00 | 75 | |
| 20260902153023 | 16 | 128 | 8.0 | 12.9 | 0.00 | 0.00 | 0.00 | 76 | |
| 20260902152031 | 16 | 127 | 4.8 | 11.3 | 0.00 | 0.00 | 0.00 | 78 | |
| 20260902151020 | 16 | 154 | 8.0 | 11.3 | 0.00 | 0.00 | 0.00 | 78 |